[[[{"header":{"parameterUnit":"kt","parameterCategory":2,"dx":1,"dy":1,"la1":30.253999710083008,"la2":30.299108505249023,"lo1":-89.0895004272461,"lo2":-89.04439544677734,"nx":28,"ny":28,"refTime":"2022-09-22T21:00:00:Z","depth":0,"parameterNumber":1,"parameterNumberName":"U-component_of_WINDS"},"data":[-1.4514,-1.4486,-1.4483,-1.445,-1.4441,-1.4417,-1.4408,-1.4395,-1.4384,-1.4355,-1.4338,-1.4332,-1.4319,-1.4298,-1.4279,-1.4277,-1.427,-1.4261,-1.426,-1.4299,-1.4305,-1.431,-1.4317,-1.4259,-1.4259,-1.4221,-1.4221,-1.4221,-1.4541,-1.4532,-1.4513,-1.4494,-1.4477,-1.4483,-1.4467,-1.4454,-1.4432,-1.4419,-1.4402,-1.4376,-1.4355,-1.4346,-1.4326,-1.4312,-1.4314,-1.4307,-1.4309,-1.4307,-1.4348,-1.4356,-1.4306,-1.4306,-1.4306,-1.4306,-1.4306,-1.4306,-1.4589,-1.4572,-1.4559,-1.4539,-1.4528,-1.4514,-1.4498,-1.4491,-1.4473,-1.4452,-1.4452,-1.4428,-1.4414,-1.4388,-1.4379,-1.436,-1.4368,-1.4359,-1.4358,-1.4356,-1.4355,-1.4411,-1.4356,-1.4356,-1.4356,-1.4357,-1.4357,0,-1.4624,-1.4622,-1.4605,-1.4586,-1.4572,-1.4557,-1.4543,-1.4533,-1.453,-1.4515,-1.4493,-1.448,-1.4454,-1.4433,-1.4414,-1.4406,-1.4412,-1.4412,-1.4406,-1.4408,-1.441,-1.441,-1.4478,-1.4414,-1.4415,-1.4415,-1.4416,-1.4416,-1.4673,-1.4654,-1.4639,-1.4628,-1.462,-1.46,-1.4588,-1.4587,-1.4575,-1.4557,-1.4543,-1.4522,-1.4505,-1.447,-1.4464,-1.4445,-1.4448,-1.4424,-1.4445,-1.4446,-1.4449,-1.4451,-1.4449,-1.4421,-1.442,-1.442,-1.4419,0,-1.4701,-1.4698,-1.4668,-1.4656,-1.4652,-1.4632,-1.4621,-1.4605,-1.4601,-1.4577,-1.4572,-1.4566,-1.4544,-1.4541,-1.4517,-1.4516,-1.4482,-1.4485,-1.4487,-1.4488,-1.4467,-1.447,-1.4399,-1.439,-1.4448,-1.4447,-1.4447,0,-1.4744,-1.4719,-1.4715,-1.4698,-1.467,-1.4671,-1.4643,-1.4638,-1.4627,-1.4608,-1.4614,-1.4597,-1.4596,-1.4578,-1.4577,-1.4549,-1.4544,-1.4542,-1.4543,-1.4543,-1.4543,-1.4538,-1.4542,-1.4543,-1.4543,-1.4544,-1.4544,0,-1.479,-1.4759,-1.4731,-1.4724,-1.4709,-1.4696,-1.4689,-1.4677,-1.4666,-1.465,-1.4643,-1.4624,-1.4614,-1.46,-1.4599,-1.4614,-1.4564,-1.4584,-1.4563,-1.4563,-1.4554,-1.4555,-1.4491,-1.4544,-1.4544,-1.4545,-1.4545,0,-1.4825,-1.481,-1.4769,-1.4758,-1.475,-1.4731,-1.4714,-1.4697,-1.4684,-1.4683,-1.4671,-1.4676,-1.4651,-1.4671,-1.4636,-1.4655,-1.4645,-1.4641,-1.464,-1.464,-1.4663,-1.4629,-1.4566,-1.456,-1.4636,-1.4636,-1.4637,0,-1.4879,-1.4838,-1.484,-1.4801,-1.4783,-1.4792,-1.4771,-1.476,-1.4756,-1.474,-1.4735,-1.4716,-1.4731,-1.4725,-1.4708,-1.4703,-1.4678,-1.4706,-1.4683,-1.4682,-1.4688,-1.4629,-1.4622,-1.4579,-1.4647,-1.4646,-1.4645,0,-1.4922,-1.4906,-1.4899,-1.4891,-1.4878,-1.4862,-1.4838,-1.482,-1.4808,-1.4795,-1.4776,-1.4748,-1.4758,-1.4748,-1.4751,-1.4733,-1.4695,-1.4747,-1.4747,-1.4739,-1.4651,-1.4644,-1.4637,-1.47,-1.4699,-1.4698,-1.4653,0,-1.4977,-1.4957,-1.4938,-1.4921,-1.4909,-1.4885,-1.4885,-1.4872,-1.4876,-1.4874,-1.4844,-1.4835,-1.4817,-1.4808,-1.4812,-1.4772,-1.4779,-1.4791,-1.4812,-1.4773,-1.4758,-1.4752,-1.4834,-1.4835,-1.4835,-1.4836,0,0,-1.5031,-1.5003,-1.5006,-1.4984,-1.4974,-1.4986,-1.4961,-1.4952,-1.4935,-1.4928,-1.494,-1.49,-1.4893,-1.4858,-1.4845,-1.4837,-1.4831,-1.4845,-1.4791,-1.4786,-1.4782,-1.4766,-1.4759,-1.4837,-1.4837,-1.4837,-1.4837,0,-1.5052,-1.5045,-1.502,-1.5012,-1.5,-1.4999,-1.4993,-1.4984,-1.4982,-1.4953,-1.4964,-1.4946,-1.4915,-1.4907,-1.4898,-1.4848,-1.4858,-1.4842,-1.4816,-1.4797,-1.4791,-1.4786,-1.4769,-1.4763,-1.4839,-1.4838,-1.4838,0,-1.5095,-1.5089,-1.5077,-1.5056,-1.5048,-1.5029,-1.5051,-1.503,-1.5015,-1.5031,-1.5003,-1.4998,-1.4986,-1.4952,-1.4937,-1.4948,-1.4884,-1.4904,-1.4901,-1.49,-1.4881,-1.4874,-1.4868,-1.4948,-1.4948,-1.4949,0,0,-1.5114,-1.5095,-1.5089,-1.5061,-1.5055,-1.5054,-1.5044,-1.5048,-1.5038,-1.5034,-1.5029,-1.5018,-1.5,-1.4989,-1.4972,-1.4935,-1.4933,-1.4917,-1.4912,-1.4908,-1.4905,-1.4885,-1.4878,-1.495,-1.495,-1.495,0,0,-1.5123,-1.5115,-1.5122,-1.5089,-1.5078,-1.5071,-1.5053,-1.5061,-1.5046,-1.505,-1.5055,-1.5053,-1.5021,-1.5017,-1.5036,-1.498,-1.5001,-1.4996,-1.4985,-1.4978,-1.4973,-1.4976,-1.5059,0,0,0,0,0,-1.5146,-1.5116,-1.5122,-1.5117,-1.5091,-1.5067,-1.5064,-1.5068,-1.5083,-1.5069,-1.5066,-1.5077,-1.5028,-1.5045,-1.5039,-1.5019,-1.4969,-1.4966,-1.4962,-1.4939,-1.4932,-1.4926,0,0,0,0,0,0,-1.5144,-1.5137,-1.5123,-1.5114,-1.5109,-1.5068,-1.5094,-1.5095,-1.5085,-1.5087,-1.5077,-1.5077,-1.508,-1.5048,-1.5043,-1.5023,-1.506,-1.4968,-1.4965,-1.4962,-1.4936,-1.4931,-1.4926,0,0,0,0,0,-1.5142,-1.5137,-1.5094,-1.5115,-1.511,-1.5108,-1.5096,-1.5096,-1.5088,-1.5085,-1.5085,-1.5093,-1.5079,-1.5075,-1.5045,-1.5026,-1.5064,-1.5062,-1.4966,-1.4964,-1.4962,-1.4934,0,0,0,0,0,0,-1.5141,-1.5137,-1.5093,-1.5092,-1.5127,-1.5111,-1.5108,-1.5097,-1.5086,-1.5086,-1.5101,-1.5103,-1.5078,-1.5076,-1.5072,-1.5026,-1.5067,-1.5065,-1.5064,-1.4964,-1.4962,-1.4961,0,0,0,0,0,0,-1.514,-1.5136,-1.5093,-1.5108,-1.5108,-1.5113,-1.5111,-1.5086,-1.5086,-1.5103,-1.5105,-1.5102,-1.5083,-1.5075,-1.5073,-1.5034,-1.5069,-1.5067,-1.5066,-1.5065,-1.4963,-1.4961,0,0,0,0,0,0,-1.5138,-1.5134,-1.5108,-1.5109,-1.5109,-1.5094,-1.5091,-1.5064,-1.5099,-1.5103,-1.5103,-1.5104,-1.5083,-1.508,-1.5073,-1.5036,-1.5035,-1.5069,-1.5068,-1.5067,-1.5066,0,0,0,0,0,0,0,-1.5137,-1.516,-1.5102,-1.5109,-1.511,-1.5079,-1.5079,-1.5078,-1.51,-1.5101,-1.5102,-1.5103,-1.508,-1.5078,-1.5076,-1.5037,0,0,-1.5069,-1.5068,0,0,0,0,0,0,0,0,-1.5161,-1.516,-1.5102,-1.5101,-1.5101,-1.5079,-1.5079,-1.5078,-1.51,-1.5101,-1.5102,-1.5103,-1.5079,-1.5078,-1.5076,0,0,0,0,0,0,0,0,0,0,0,0,0,0,0,-1.5102,-1.5101,0,-1.5079,-1.5079,-1.5078,-1.51,-1.5101,-1.5102,-1.5103,-1.5079,-1.5078,-1.5076,0,0,0,0,0,0,0,0,0,0,0,0,0,0,0,0,0,0,0,0,0,0,0,0,0,0,0,0,0,0,0,0,0,0,0,0,0,0,0,0,0,0,0,0,0,0,0,0,0,0,0,0,0,0,0,0,0,0,0,0,0,0,0,0,0,0,0,0,0]}],[{"header":{"parameterUnit":"kt","parameterCategory":2,"dx":1,"dy":1,"la1":30.253999710083008,"la2":30.299108505249023,"lo1":-89.0895004272461,"lo2":-89.04439544677734,"nx":28,"ny":28,"refTime":"2022-09-22T21:00:00:Z","depth":0,"parameterNumber":2,"parameterNumberName":"V-component_of_WINDS"},"data":[-2.7721,-2.7685,-2.7714,-2.7685,-2.7707,-2.7692,-2.7695,-2.7703,-2.7716,-2.7699,-2.7695,-2.772,-2.7743,-2.7743,-2.7738,-2.7749,-2.7744,-2.7709,-2.7727,-2.7861,-2.7881,-2.79,-2.7911,-2.7708,-2.7708,-2.7584,-2.7583,-2.7582,-2.7813,-2.7834,-2.7828,-2.7843,-2.7837,-2.7889,-2.7904,-2.7895,-2.788,-2.7896,-2.7894,-2.7881,-2.7875,-2.7911,-2.7909,-2.789,-2.7914,-2.7887,-2.7888,-2.789,-2.8035,-2.8046,-2.7868,-2.7868,-2.7868,-2.7868,-2.7869,-2.7869,-2.7987,-2.7964,-2.7991,-2.7985,-2.8001,-2.801,-2.7993,-2.8025,-2.8019,-2.8023,-2.806,-2.8042,-2.8063,-2.8076,-2.8088,-2.8073,-2.8108,-2.8088,-2.8082,-2.8076,-2.8064,-2.8233,-2.8075,-2.8075,-2.8076,-2.8077,-2.8077,0,-2.8123,-2.815,-2.8148,-2.8153,-2.8151,-2.8158,-2.817,-2.816,-2.8227,-2.8219,-2.8209,-2.8208,-2.8206,-2.8199,-2.8205,-2.8221,-2.8272,-2.8282,-2.8268,-2.8248,-2.8229,-2.8236,-2.8467,-2.8286,-2.8288,-2.8289,-2.829,-2.8291,-2.8299,-2.827,-2.8314,-2.8308,-2.8323,-2.8312,-2.8311,-2.8373,-2.837,-2.8392,-2.8368,-2.8363,-2.8363,-2.8341,-2.8378,-2.8376,-2.84,-2.8327,-2.84,-2.8383,-2.8396,-2.8396,-2.8392,-2.8311,-2.8309,-2.8306,-2.8305,0,-2.8394,-2.8446,-2.8411,-2.8458,-2.8469,-2.8435,-2.8474,-2.8454,-2.8489,-2.8465,-2.8463,-2.8517,-2.8506,-2.8556,-2.8554,-2.858,-2.8519,-2.8544,-2.8511,-2.8518,-2.8456,-2.846,-2.8251,-2.8226,-2.8439,-2.8437,-2.8436,0,-2.8563,-2.8523,-2.8602,-2.8579,-2.8536,-2.8601,-2.8556,-2.8582,-2.8604,-2.8586,-2.8655,-2.8636,-2.8704,-2.8692,-2.8731,-2.869,-2.8691,-2.8708,-2.8718,-2.87,-2.8697,-2.8697,-2.8705,-2.8746,-2.8747,-2.8748,-2.8749,0,-2.8706,-2.8703,-2.8667,-2.8674,-2.8721,-2.8701,-2.872,-2.8746,-2.8745,-2.8752,-2.8751,-2.8754,-2.8755,-2.8755,-2.8804,-2.8852,-2.8758,-2.8833,-2.8774,-2.8773,-2.8749,-2.875,-2.8554,-2.875,-2.875,-2.8751,-2.8751,0,-2.885,-2.8859,-2.88,-2.884,-2.8836,-2.8812,-2.8821,-2.8813,-2.8835,-2.8859,-2.8865,-2.8916,-2.8888,-2.8958,-2.8919,-2.8966,-2.8962,-2.8977,-2.8974,-2.8972,-2.9049,-2.8929,-2.874,-2.8721,-2.8972,-2.8974,-2.8976,0,-2.8997,-2.8953,-2.901,-2.8952,-2.8938,-2.9017,-2.8992,-2.901,-2.9041,-2.9032,-2.9065,-2.9055,-2.9119,-2.9122,-2.9096,-2.9129,-2.9068,-2.9139,-2.9121,-2.9119,-2.911,-2.8938,-2.8896,-2.8776,-2.9001,-2.8998,-2.8996,0,-2.9119,-2.9179,-2.9165,-2.9176,-2.9214,-2.9203,-2.9174,-2.918,-2.9171,-2.9186,-2.9161,-2.9149,-2.9196,-2.9202,-2.9244,-2.9215,-2.9111,-2.9269,-2.927,-2.9236,-2.9018,-2.8978,-2.8958,-2.9146,-2.9143,-2.9141,-2.9016,0,-2.932,-2.9306,-2.9272,-2.9296,-2.9297,-2.9265,-2.9322,-2.9315,-2.9357,-2.939,-2.9357,-2.9386,-2.939,-2.9383,-2.9423,-2.934,-2.9361,-2.9412,-2.9483,-2.937,-2.933,-2.9314,-2.9538,-2.9541,-2.9543,-2.9544,0,0,-2.9447,-2.9429,-2.9494,-2.947,-2.9474,-2.9558,-2.9518,-2.9532,-2.9558,-2.9558,-2.9599,-2.9585,-2.9607,-2.956,-2.9529,-2.9532,-2.9521,-2.9559,-2.9424,-2.941,-2.9398,-2.9354,-2.9337,-2.9548,-2.9549,-2.9549,-2.955,0,-2.9533,-2.9558,-2.952,-2.9538,-2.9567,-2.9606,-2.9596,-2.964,-2.9659,-2.9629,-2.9697,-2.9683,-2.9672,-2.9686,-2.9691,-2.9567,-2.9617,-2.9564,-2.9477,-2.9443,-2.9427,-2.9412,-2.9365,-2.9348,-2.9555,-2.9555,-2.9555,0,-2.9661,-2.9694,-2.9683,-2.97,-2.972,-2.9705,-2.9794,-2.9775,-2.9764,-2.9856,-2.9824,-2.9848,-2.9871,-2.9821,-2.98,-2.9836,-2.9701,-2.9756,-2.9744,-2.9742,-2.9712,-2.9692,-2.9674,-2.9905,-2.9906,-2.9907,0,0,-2.9727,-2.9716,-2.9772,-2.9723,-2.9731,-2.9788,-2.9787,-2.9829,-2.9851,-2.9859,-2.9891,-2.9908,-2.9902,-2.9897,-2.9894,-2.9831,-2.984,-2.9796,-2.978,-2.9766,-2.9757,-2.9722,-2.9703,-2.9911,-2.9911,-2.9911,0,0,-2.9758,-2.9822,-2.9862,-2.9813,-2.9832,-2.9883,-2.985,-2.9899,-2.9904,-2.9914,-2.9983,-2.9991,-2.9945,-2.9966,-3.0009,-2.992,-2.999,-2.9981,-2.9908,-2.9888,-2.9872,-2.9867,-3.0104,0,0,0,0,0,-2.9877,-2.9815,-2.985,-2.9851,-2.9873,-2.9864,-2.9867,-2.9924,-2.9972,-2.9944,-2.9979,-3.0035,-3.0003,-3.0043,-3.0042,-2.9992,-2.9959,-2.995,-2.9942,-2.9834,-2.9813,-2.9795,0,0,0,0,0,0,-2.9878,-2.9879,-2.9852,-2.9899,-2.9905,-2.9867,-2.996,-2.9974,-2.9976,-2.9987,-3.0026,-3.0036,-3.0083,-3.0048,-3.0046,-2.9997,-3.0105,-2.9956,-2.9948,-2.9942,-2.9827,-2.9809,-2.9794,0,0,0,0,0,-2.9879,-2.988,-2.99,-2.99,-2.9905,-2.9966,-2.9963,-2.9975,-2.9978,-3.0032,-3.0044,-3.0021,-3.008,-3.0082,-3.0047,-2.9997,-3.0106,-3.0105,-2.9951,-2.9945,-2.994,-2.9818,0,0,0,0,0,0,-2.9879,-2.989,-2.9903,-2.9906,-2.9929,-2.9969,-2.9978,-2.9976,-3.0024,-3.0034,-3.003,-3.0038,-3.0078,-3.008,-3.0081,-2.9993,-3.0108,-3.0107,-3.0106,-2.9947,-2.9942,-2.9938,0,0,0,0,0,0,-2.989,-2.9892,-2.9905,-2.9938,-2.9945,-2.9972,-2.998,-2.9958,-3.0023,-3.0019,-3.0028,-3.0033,-3.0075,-3.0077,-3.0079,-3.0042,-3.0109,-3.0108,-3.0108,-3.0107,-2.9943,-2.9939,0,0,0,0,0,0,-2.9892,-2.9894,-2.9937,-2.9943,-2.995,-2.9994,-2.9954,-2.9973,-3.0053,-3.0016,-3.0062,-3.0066,-3.0071,-3.0074,-3.0077,-3.0039,-3.0042,-3.0109,-3.0109,-3.0108,-3.0108,0,0,0,0,0,0,0,-2.9894,-2.9867,-2.9882,-2.9947,-2.9954,-2.9939,-2.994,-2.994,-3.0054,-3.0057,-3.0061,-3.0064,-3.0115,-3.0114,-3.0113,-3.0037,0,0,-3.0109,-3.0109,0,0,0,0,0,0,0,0,-2.9867,-2.9867,-2.9882,-2.9883,-2.9884,-2.9939,-2.994,-2.994,-3.0055,-3.0057,-3.006,-3.0063,-3.0115,-3.0114,-3.0113,0,0,0,0,0,0,0,0,0,0,0,0,0,0,0,-2.9882,-2.9883,0,-2.9939,-2.9939,-2.994,-3.0055,-3.0057,-3.006,-3.0062,-3.0114,-3.0114,-3.0113,0,0,0,0,0,0,0,0,0,0,0,0,0,0,0,0,0,0,0,0,0,0,0,0,0,0,0,0,0,0,0,0,0,0,0,0,0,0,0,0,0,0,0,0,0,0,0,0,0,0,0,0,0,0,0,0,0,0,0,0,0,0,0,0,0,0,0,0,0]}]]]